Home > Weather > Kaunas > Past weeks

Flag for Lithuania Weather for the Past 2 Weeks in Kaunas, Lithuania

Now
43 °F

Sleet. Fog.


Feels Like: 43 °F
Forecast: 46 / 65 °F
Wind: 1 mph from North

Location: Kaunas

Current Time: May 2, 2016 at 7:18:36 AM

Latest Report: May 2, 2016 at 6:20 AM


Visibility: 2 mi

Pressure: 30.24 "Hg

Humidity: 93%

Dew Point: 41 °F

Location of KaunasLocation

Historic Weather in Kaunas — Graph

°F

Kaunas Temperature Yesterday

Maximum temperature yesterday: 57 °F (at 4:50 PM)
Minimum temperature yesterday: 46 °F (at 12:20 AM)
Average temperature yesterday: 51 °F

High & Low Weather Summary for the Past Weeks

 TemperatureHumidityPressure
High61 °F (Apr 27, 4:50 PM)100% (Apr 23, 5:20 AM)30.30 "Hg (Apr 23, 5:20 AM)
Low28 °F (Apr 27, 3:20 AM)30% (Apr 21, 5:20 PM)29.53 "Hg (Apr 24, 9:50 AM)
Average44 °F74%29.89 "Hg
* Reported Apr 17 5:20 AM — May 2 5:50 AM, Kaunas, Weather by CustomWeather, © 2016

Note: Actual official high and low records may vary slightly from our data, if they occured in-between our weather recording intervals... More about our weather records

Advertising

Kaunas Weather History for the Previous 24 Hours

Scroll right to see more
 ConditionsComfort  
Time TempWeatherWind HumidityBarometerVisibility
5:50 AM
Mon, May 2
43 °FFog.1 mph93%30.24 "Hg4 mi
5:20 AM45 °FSleet. Fog.2 mph93%30.24 "Hg4 mi
4:50 AM45 °FFog.3 mph93%30.24 "Hg3 mi
4:20 AM45 °FFog.1 mph93%30.24 "Hg3 mi
3:50 AM45 °FSleet. Mostly cloudy.2 mph100%30.24 "Hg4 mi
3:20 AM46 °FOvercast.1 mph93%30.24 "HgN/A
2:50 AM46 °FOvercast.2 mph93%30.24 "HgN/A
1:50 AM46 °FOvercast.3 mph93%30.24 "HgN/A
1:20 AM46 °FPassing clouds.2 mph93%30.24 "HgN/A
12:50 AM48 °FOvercast.3 mph94%30.24 "HgN/A
12:20 AM48 °FOvercast.6 mph94%30.24 "HgN/A
11:50 PM
Sun, May 1
50 °FClear.2 mph94%30.24 "Hg10 mi
11:20 PM52 °FPassing clouds.3 mph88%30.24 "HgN/A
10:50 PM52 °FMostly cloudy.3 mph88%30.24 "HgN/A
10:20 PM52 °FMostly cloudy.1 mph88%30.24 "HgN/A
9:50 PM52 °FPartly sunny.1 mph88%30.24 "HgN/A
9:20 PM54 °FPartly sunny.5 mph82%30.21 "HgN/A
8:50 PM54 °FMostly cloudy.5 mph82%30.21 "HgN/A
8:20 PM55 °FBroken clouds.3 mph77%30.21 "HgN/A
7:50 PM55 °FBroken clouds.5 mph77%30.21 "HgN/A
7:20 PM55 °FBroken clouds.6 mph72%30.21 "HgN/A
6:50 PM57 °FBroken clouds.7 mph67%30.21 "HgN/A
6:20 PM57 °FCloudy.7 mph72%30.21 "HgN/A
5:50 PM57 °FBroken clouds.8 mph72%30.21 "HgN/A
5:20 PM57 °FMostly cloudy.8 mph67%30.21 "HgN/A
4:50 PM57 °FBroken clouds.8 mph72%30.21 "HgN/A
4:20 PM55 °FCloudy.6 mph82%30.21 "HgN/A
3:50 PM55 °FMostly cloudy.7 mph77%30.21 "HgN/A
3:20 PM55 °FCloudy.6 mph77%30.21 "HgN/A
2:50 PM55 °FOvercast.8 mph77%30.21 "HgN/A
2:20 PM55 °FMostly cloudy.9 mph72%30.21 "HgN/A
1:50 PM55 °FMostly cloudy.6 mph77%30.21 "HgN/A
1:20 PM54 °FSprinkles. Mostly cloudy.7 mph77%30.24 "HgN/A
12:50 PM54 °FOvercast.8 mph77%30.24 "HgN/A
12:20 PM54 °FMostly cloudy.10 mph82%30.24 "HgN/A
11:50 AM52 °FMostly cloudy.9 mph82%30.24 "HgN/A
11:20 AM50 °FSprinkles. Overcast.8 mph88%30.24 "HgN/A
10:50 AM52 °FMore clouds than sun.12 mph82%30.24 "HgN/A
9:50 AM48 °FMore clouds than sun.10 mph87%30.24 "HgN/A
9:20 AM48 °FMostly cloudy.9 mph87%30.21 "HgN/A
8:50 AM46 °FLight rain. Overcast.8 mph93%30.24 "HgN/A
8:20 AM46 °FLight rain. Overcast.9 mph87%30.21 "HgN/A
7:20 AM46 °FMore clouds than sun.9 mph87%30.21 "HgN/A
Weather by CustomWeather, © 2016

See weather overviewHow to use our weather pages